Tracking 29892 objects as of 21-Nov-2024
HD Live streaming from Space Station
objects crossing your sky now

NOAA 16 DEB

Track NOAA 16 DEB now!
10-day predictions


NORAD ID: 41419
Int'l Code: 2000-055KY
Perigee: 764.2 km
Apogee: 781.4 km
Inclination: 98.9 °
Period: 100.2 minutes
Semi major axis: 7143 km
RCS: Unknown
Launch date: September 21, 2000
Source: United States (US)
Launch site: AIR FORCE WESTERN TEST RANGE (AFWTR)

Note: This is SATELLITE DEBRIS
Your satellite tracking list
Your tracking list is empty




NASA's NSSDC Master Catalog

Two Line Element Set (TLE):
1 41419U 00055KY  24325.23080519  .00023238  00000-0  76906-2 0  9991
2 41419  98.8600  60.4877 0012016 353.2811   6.8212 14.37842977451345
Source of the keplerian elements: AFSPC